Location: La Comballaz
(46.3780°N, 7.0817°E)
Time: 11:05:46
(UTC+00:00)

Cosmos 1023 Rocket - Pass Details

Date: 09 April 2020
Orbit: 737 x 772 km, 74.1° (Epoch: 24 May)

Event Time Altitude Azimuth Distance (km) Brightness Sun altitude
Rises 19:21:15 0° 197° (SSW) 3,198 7.6 -12.1°
Reaches altitude 10° 19:23:36 10° 197° (SSW) 2,272 6.9 -12.5°
Maximum altitude 19:28:45 83° 110° (ESE) 760 4.4 -13.3°
Drops below altitude 10° 19:33:54 10° 23° (NNE) 2,266 7.0 -14.1°
Sets 19:36:15 0° 23° (NNE) 3,190 7.8 -14.4°
